Showing default

GRUS-1E, 47935

Orbit data source: Space-Track

GRUS-1E, 47935 is a payload satellite owned by AXELSPACE (JP) in SSO that was launched on Mon, 22 Mar 2021 UTC via a SOYUZ-2-1A launch vehicle from the Tyuratam Missile And Space Complex (TTMTR). Payload-class satellites include a variety of spacecraft equipped with specific instruments for various scientific and technological missions. These include communications satellites like Starlink; space stations such as the ISS; scientific satellites like the Hubble; Earth observation satellites from companies like Planet Labs, Umbra, and HawkEye 360; GPS; miniature CubeSats for education and research; and military/defense satellites.

Loading next visibility...
Identifier
47935, 2021-022D
Orbit
SSO
Country
Flag of JPJP / JPN
Related business
Manufacturer
AXELSPACE
Mission
Operational Commercial Imaging
Bus & Motor
GRUS, Unknown motor
Mass
80 kg wet, 80 kg dry
Launch date (UTC)
2021-03-22 (5 years ago)
Launch vehicle
SOYUZ-2-1A
Launch site
Tyuratam Missile And Space Complex (TTMTR)
Object type
Payload
Rocket body
Debris
Shape & HBR
Box, 0.3 m
Radar Cross Section
0.375 m², Medium (>0.1 m² and < 1m²)

Expand to show TLE details & history
Last TLE update: 15 hours ago

TLE from 15 hours ago
0 GRUS-1E
1 47935U 21022D   25348.98114797  .00002803  00000-0  23123-3 0  9990
2 47935  97.5676 233.8911 0013036 213.1006 146.9403 14.99744407258341
Epoch: 2025-12-14T23:32Z
TLE epoch observation values (Epoch: 2025-12-14T23:32:51.184Z)
Latitude
-0.00004°
Longitude
156.79157°
Altitude
578.337 km
Speed
7.567 km/s
True Right ascension
15h 35m 33s
True Declination
0° 00' 00"
Sunlit
Object was in daylight at epoch
Visualization orbit readout
Latitude
Unknown
Longitude
Unknown
Altitude
Unknown
Speed
Unknown
Apparent Right ascension
Unknown
Apparent Declination
Unknown
Sunlit
N/A
Visualization observer readout
Local Sidereal Time
13:20:32
Azimuth
Unknown
Elevation
Unknown
Doppler factor
Unknown
Orbital elements
Apogee altitude
573.736 km
Perigee altitude
555.635 km
Semi-major axis
6,942.822 km
Eccentricity
0.0013
Inclination
97.5676°
RAAN
233.8911°
Arg. of periapsis
213.1006°
True anomaly
147.02168°
Mean anomaly
146.9403°
Eccentric anomaly
146.981°
Mean motion
3.7518 °/min
Orbital period
95.95 mins
BSTAR
0.00023123
Loading maneuver chart data...
Computing Atmospheric mass density...
Loading historical data...
Loading historical data...
Loading historical data...
Loading historical data...
Loading historical data...
Loading historical data...
Loading historical data...

Documentation

Showing up to 5 results
|